Weather History for KEYE - November, 2013

Change the Weather History Date:

Friday, November 8, 2013

  Actual Average Record
Temperature  
Mean Temperature 39 °F 47 °F  
Max Temperature 50 °F 56 °F 73 °F (1999)
Min Temperature 28 °F 39 °F 28 °F (2003)
Degree Days  
Heating Degree Days 26 18  
Month to date heating degree days 150 132  
Since 1 July heating degree days 563 524  
Cooling Degree Days 0 0  
Month to date cooling degree days 0 0  
Year to date cooling degree days 1006 1058  
Moisture  
Dew Point 27 °F    
Average Humidity 66    
Maximum Humidity 92    
Minimum Humidity 39    
Precipitation  
Precipitation 0.00 in 0.10 in 0.12 in (2005)
Month to date precipitation 0.34 0.99  
Year to date precipitation 36.39 35.00  
Sea Level Pressure  
Sea Level Pressure 30.29 in    
Wind  
Wind Speed 4 mph (SW)    
Max Wind Speed 13 mph    
Max Gust Speed 15 mph    
Visibility 10 miles    
Events      
T = Trace of Precipitation, MM = Missing Value Source: NWS Daily Summary

Daily Weather History Graph

Daily Weather History Graph

Search for Another Location

Airport or City:

Trip Planner

Search our weather history database for the weather conditions in past years. The results will help you decide how hot, cold, wet, or windy it might be!

Date:

Astronomy

Nov. 08, 2013 Rise Set
Actual Time 7:22 AM EST 5:35 PM EST
Civil Twilight 6:53 AM EST 6:03 PM EST
Nautical Twilight 6:21 AM EST 6:35 PM EST
Astronomical Twilight 5:49 AM EST 7:07 PM EST
Moon 12:17 PM EST (11/8) 10:55 PM EST (11/8)
Length of Visible Light 11h 09m
Length of Day
10h 13m
Waxing Crescent, 33% of the Moon is Illuminated
Nov 8
Waxing Crescent
Nov 10
First Quarter
Nov 17
Full
Nov 25
Last Quarter
Dec 2
New

Hourly Weather History & Observations

Time (EST) Temp. Windchill Dew Point Humidity Pressure Visibility Wind Dir Wind Speed Gust Speed Precip Events Conditions
12:53 AM 32.0 °F 28.7 °F 27.0 °F 82% 30.29 in 10.0 mi WSW 3.5 mph - N/A   Clear
1:53 AM 28.9 °F - 27.0 °F 92% 30.29 in 8.0 mi Calm Calm - N/A   Clear
2:53 AM 28.0 °F - 26.1 °F 92% 30.28 in 7.0 mi Calm Calm - N/A   Clear
3:53 AM 28.9 °F - 26.1 °F 89% 30.29 in 6.0 mi Calm Calm - N/A   Clear
4:53 AM 30.9 °F 24.3 °F 28.0 °F 89% 30.30 in 9.0 mi West 6.9 mph - 0.00 in   Clear
5:53 AM 32.0 °F 25.6 °F 28.0 °F 85% 30.32 in 9.0 mi West 6.9 mph - N/A   Clear
6:53 AM 30.9 °F 23.5 °F 27.0 °F 85% 30.33 in 9.0 mi WNW 8.1 mph - N/A   Clear
7:53 AM 30.9 °F 25.2 °F 27.0 °F 85% 30.35 in 9.0 mi West 5.8 mph - N/A   Clear
8:53 AM 35.1 °F 30.1 °F 28.0 °F 76% 30.37 in 10.0 mi NW 5.8 mph - N/A   Clear
9:53 AM 37.9 °F 34.4 °F 30.0 °F 73% 30.38 in 10.0 mi NNW 4.6 mph - N/A   Clear
10:53 AM 41.0 °F - 28.9 °F 62% 30.38 in 10.0 mi Calm Calm - N/A   Clear
11:53 AM 45.0 °F - 27.0 °F 49% 30.36 in 10.0 mi Calm Calm - N/A   Clear
12:53 PM 46.0 °F 43.1 °F 26.1 °F 46% 30.33 in 10.0 mi WSW 5.8 mph - N/A   Clear
1:53 PM 48.9 °F - 26.1 °F 41% 30.30 in 10.0 mi SSW 3.5 mph - N/A   Clear
2:53 PM 48.9 °F - 27.0 °F 43% 30.28 in 10.0 mi SSW 6.9 mph - N/A   Clear
3:53 PM 48.9 °F - 26.1 °F 41% 30.27 in 10.0 mi SSW 3.5 mph - N/A   Clear
4:53 PM 48.9 °F - 25.0 °F 39% 30.26 in 10.0 mi SSW 8.1 mph - N/A   Clear
5:53 PM 46.9 °F - 27.0 °F 46% 30.26 in 10.0 mi Calm Calm - N/A   Clear
6:53 PM 46.0 °F 44.8 °F 28.0 °F 50% 30.24 in 10.0 mi SSE 3.5 mph - N/A   Clear
7:53 PM 44.1 °F 42.5 °F 27.0 °F 51% 30.22 in 10.0 mi South 3.5 mph - N/A   Clear
8:53 PM 44.1 °F 41.5 °F 27.0 °F 51% 30.22 in 10.0 mi South 4.6 mph - N/A   Clear
9:53 PM 44.1 °F 40.1 °F 26.1 °F 49% 30.21 in 10.0 mi South 6.9 mph - N/A   Clear
10:53 PM 43.0 °F 40.3 °F 26.1 °F 51% 30.21 in 10.0 mi SSE 4.6 mph - N/A   Clear
11:53 PM 43.0 °F 38.2 °F 26.1 °F 51% 30.18 in 10.0 mi South 8.1 mph - N/A   Clear